{"data":{"norad_id":68202,"epoch":"2026-09-20T04:19:53.130720Z","epoch_age_seconds":103008,"freshness":"FRESH","line1":"1 68202U 26052E   26263.18047605  .00003062  00000+0  18044-3 0  9993","line2":"2 68202  97.5253 336.6660 0010769 353.9375   6.1723 15.12294064 28406","mean_motion":15.12294064,"eccentricity":0.0010769,"inclination_deg":97.5253,"raan_deg":336.666,"arg_perigee_deg":353.9375,"mean_anomaly_deg":6.1723,"bstar":0.00018044,"rev_number":2840,"period_min":95.219576290025,"perigee_km":521.76727949677,"apogee_km":536.64431441285,"semimajor_km":6907.3427969548,"source":"CELESTRAK","updated_at":"2026-09-20T09:00:24.068516Z"}}